Year,Month,Day,Hour,Minute,Value (Times are PST for temperature in C)
2015,06,14,00,00,13.80
2015,06,14,00,01,13.80
2015,06,14,00,02,13.70
2015,06,14,00,03,13.70
2015,06,14,00,04,13.70
2015,06,14,00,05,13.60
2015,06,14,00,06,13.60
2015,06,14,00,07,13.50
2015,06,14,00,08,13.50
2015,06,14,00,09,13.40
2015,06,14,00,10,13.30
2015,06,14,00,11,13.30
2015,06,14,00,12,13.30
2015,06,14,00,13,13.20
2015,06,14,00,14,13.20
2015,06,14,00,15,13.20
2015,06,14,00,16,13.10
2015,06,14,00,17,13.10
2015,06,14,00,18,13.10
2015,06,14,00,19,13.00
2015,06,14,00,20,12.90
2015,06,14,00,21,12.90
2015,06,14,00,22,12.90
2015,06,14,00,23,12.90
2015,06,14,00,24,12.80
2015,06,14,00,25,12.80
2015,06,14,00,26,12.80
2015,06,14,00,27,12.80
2015,06,14,00,28,12.80
2015,06,14,00,29,12.70
2015,06,14,00,30,12.70
2015,06,14,00,31,12.70
2015,06,14,00,32,12.70
2015,06,14,00,33,12.70
2015,06,14,00,34,12.70
2015,06,14,00,35,12.60
2015,06,14,00,36,12.60
2015,06,14,00,37,12.60
2015,06,14,00,38,12.60
2015,06,14,00,39,12.60
2015,06,14,00,40,12.60
2015,06,14,00,41,12.60
2015,06,14,00,42,12.50
2015,06,14,00,43,12.50
2015,06,14,00,44,12.50
2015,06,14,00,45,12.40
2015,06,14,00,46,12.40
2015,06,14,00,47,12.40
2015,06,14,00,48,12.40
2015,06,14,00,49,12.40
2015,06,14,00,50,12.30
2015,06,14,00,51,12.30
2015,06,14,00,52,12.30
2015,06,14,00,53,12.30
2015,06,14,00,54,12.30
2015,06,14,00,55,12.30
2015,06,14,00,56,12.20
2015,06,14,00,57,12.20
2015,06,14,00,58,12.20
2015,06,14,00,59,12.10
2015,06,14,01,00,12.10
2015,06,14,01,01,12.10
2015,06,14,01,02,12.10
2015,06,14,01,03,12.00
2015,06,14,01,04,12.00
2015,06,14,01,05,12.00
2015,06,14,01,06,11.90
2015,06,14,01,07,11.90
2015,06,14,01,08,11.90
2015,06,14,01,09,11.80
2015,06,14,01,10,11.80
2015,06,14,01,11,11.80
2015,06,14,01,12,11.80
2015,06,14,01,13,11.80
2015,06,14,01,14,11.80
2015,06,14,01,15,11.70
2015,06,14,01,16,11.70
2015,06,14,01,17,11.70
2015,06,14,01,18,11.70
2015,06,14,01,19,11.70
2015,06,14,01,20,11.70
2015,06,14,01,21,11.70
2015,06,14,01,22,11.70
2015,06,14,01,23,11.70
2015,06,14,01,24,11.60
2015,06,14,01,25,11.60
2015,06,14,01,26,11.60
2015,06,14,01,27,11.60
2015,06,14,01,28,11.60
2015,06,14,01,29,11.60
2015,06,14,01,30,11.60
2015,06,14,01,31,11.60
2015,06,14,01,32,11.60
2015,06,14,01,33,11.60
2015,06,14,01,34,11.60
2015,06,14,01,35,11.60
2015,06,14,01,36,11.60
2015,06,14,01,37,11.60
2015,06,14,01,38,11.60
2015,06,14,01,39,11.50
2015,06,14,01,40,11.50
2015,06,14,01,41,11.50
2015,06,14,01,42,11.50
2015,06,14,01,43,11.40
2015,06,14,01,44,11.40
2015,06,14,01,45,11.40
2015,06,14,01,46,11.40
2015,06,14,01,47,11.30
2015,06,14,01,48,11.30
2015,06,14,01,49,11.30
2015,06,14,01,50,11.30
2015,06,14,01,51,11.30
2015,06,14,01,52,11.20
2015,06,14,01,53,11.20
2015,06,14,01,54,11.20
2015,06,14,01,55,11.20
2015,06,14,01,56,11.20
2015,06,14,01,57,11.10
2015,06,14,01,58,11.10
2015,06,14,01,59,11.10
2015,06,14,02,00,11.10
2015,06,14,02,01,11.10
2015,06,14,02,02,11.10
2015,06,14,02,03,11.00
2015,06,14,02,04,11.00
2015,06,14,02,05,11.00
2015,06,14,02,06,10.90
2015,06,14,02,07,10.90
2015,06,14,02,08,10.90
2015,06,14,02,09,10.90
2015,06,14,02,10,10.90
2015,06,14,02,11,10.80
2015,06,14,02,12,10.80
2015,06,14,02,13,10.80
2015,06,14,02,14,10.80
2015,06,14,02,15,10.80
2015,06,14,02,16,10.80
2015,06,14,02,17,10.80
2015,06,14,02,18,10.80
2015,06,14,02,19,10.70
2015,06,14,02,20,10.70
2015,06,14,02,21,10.70
2015,06,14,02,22,10.70
2015,06,14,02,23,10.70
2015,06,14,02,24,10.70
2015,06,14,02,25,10.70
2015,06,14,02,26,10.70
2015,06,14,02,27,10.60
2015,06,14,02,28,10.60
2015,06,14,02,29,10.60
2015,06,14,02,30,10.60
2015,06,14,02,31,10.60
2015,06,14,02,32,10.60
2015,06,14,02,33,10.60
2015,06,14,02,34,10.60
2015,06,14,02,35,10.60
2015,06,14,02,36,10.60
2015,06,14,02,37,10.60
2015,06,14,02,38,10.60
2015,06,14,02,39,10.60
2015,06,14,02,40,10.60
2015,06,14,02,41,10.60
2015,06,14,02,42,10.60
2015,06,14,02,43,10.60
2015,06,14,02,44,10.60
2015,06,14,02,45,10.60
2015,06,14,02,46,10.50
2015,06,14,02,47,10.50
2015,06,14,02,48,10.50
2015,06,14,02,49,10.50
2015,06,14,02,50,10.50
2015,06,14,02,51,10.40
2015,06,14,02,52,10.40
2015,06,14,02,53,10.40
2015,06,14,02,54,10.40
2015,06,14,02,55,10.40
2015,06,14,02,56,10.40
2015,06,14,02,57,10.40
2015,06,14,02,58,10.40
2015,06,14,02,59,10.30
2015,06,14,03,00,10.30
2015,06,14,03,01,10.30
2015,06,14,03,02,10.30
2015,06,14,03,03,10.30
2015,06,14,03,04,10.20
2015,06,14,03,05,10.20
2015,06,14,03,06,10.20
2015,06,14,03,07,10.20
2015,06,14,03,08,10.20
2015,06,14,03,09,10.20
2015,06,14,03,10,10.20
2015,06,14,03,11,10.10
2015,06,14,03,12,10.10
2015,06,14,03,13,10.10
2015,06,14,03,14,10.10
2015,06,14,03,15,10.10
2015,06,14,03,16,10.10
2015,06,14,03,17,10.00
2015,06,14,03,18,10.00
2015,06,14,03,19,10.00
2015,06,14,03,20,9.90
2015,06,14,03,21,9.90
2015,06,14,03,22,9.90
2015,06,14,03,23,9.80
2015,06,14,03,24,9.80
2015,06,14,03,25,9.80
2015,06,14,03,26,9.80
2015,06,14,03,27,9.80
2015,06,14,03,28,9.70
2015,06,14,03,29,9.70
2015,06,14,03,30,9.70
2015,06,14,03,31,9.70
2015,06,14,03,32,9.70
2015,06,14,03,33,9.70
2015,06,14,03,34,9.70
2015,06,14,03,35,9.70
2015,06,14,03,36,9.70
2015,06,14,03,37,9.70
2015,06,14,03,38,9.70
2015,06,14,03,39,9.70
2015,06,14,03,40,9.70
2015,06,14,03,41,9.70
2015,06,14,03,42,9.70
2015,06,14,03,43,9.70
2015,06,14,03,44,9.70
2015,06,14,03,45,9.70
2015,06,14,03,46,9.70
2015,06,14,03,47,9.60
2015,06,14,03,48,9.60
2015,06,14,03,49,9.60
2015,06,14,03,50,9.60
2015,06,14,03,51,9.50
2015,06,14,03,52,9.50
2015,06,14,03,53,9.50
2015,06,14,03,54,9.50
2015,06,14,03,55,9.40
2015,06,14,03,56,9.40
2015,06,14,03,57,9.40
2015,06,14,03,58,9.40
2015,06,14,03,59,9.40
2015,06,14,04,00,9.40
2015,06,14,04,01,9.40
2015,06,14,04,02,9.40
2015,06,14,04,03,9.30
2015,06,14,04,04,9.30
2015,06,14,04,05,9.30
2015,06,14,04,06,9.30
2015,06,14,04,07,9.30
2015,06,14,04,08,9.30
2015,06,14,04,09,9.30
2015,06,14,04,10,9.30
2015,06,14,04,11,9.30
2015,06,14,04,12,9.30
2015,06,14,04,13,9.30
2015,06,14,04,14,9.30
2015,06,14,04,15,9.30
2015,06,14,04,16,9.30
2015,06,14,04,17,9.30
2015,06,14,04,18,9.30
2015,06,14,04,19,9.20
2015,06,14,04,20,9.20
2015,06,14,04,21,9.20
2015,06,14,04,22,9.20
2015,06,14,04,23,9.20
2015,06,14,04,24,9.20
2015,06,14,04,25,9.20
2015,06,14,04,26,9.10
2015,06,14,04,27,9.10
2015,06,14,04,28,9.10
2015,06,14,04,29,9.10
2015,06,14,04,30,9.10
2015,06,14,04,31,9.10
2015,06,14,04,32,9.10
2015,06,14,04,33,9.10
2015,06,14,04,34,9.10
2015,06,14,04,35,9.10
2015,06,14,04,36,9.00
2015,06,14,04,37,9.00
2015,06,14,04,38,9.00
2015,06,14,04,39,9.00
2015,06,14,04,40,8.90
2015,06,14,04,41,8.90
2015,06,14,04,42,8.90
2015,06,14,04,43,8.90
2015,06,14,04,44,8.90
2015,06,14,04,45,8.90
2015,06,14,04,46,8.90
2015,06,14,04,47,8.90
2015,06,14,04,48,8.90
2015,06,14,04,49,8.90
2015,06,14,04,50,8.90
2015,06,14,04,51,8.90
2015,06,14,04,52,8.90
2015,06,14,04,53,8.80
2015,06,14,04,54,8.80
2015,06,14,04,55,8.80
2015,06,14,04,56,8.80
2015,06,14,04,57,8.80
2015,06,14,04,58,8.80
2015,06,14,04,59,8.80
2015,06,14,05,00,8.80
2015,06,14,05,01,8.80
2015,06,14,05,02,8.80
2015,06,14,05,03,8.80
2015,06,14,05,04,8.80
2015,06,14,05,05,8.80
2015,06,14,05,06,8.70
2015,06,14,05,07,8.70
2015,06,14,05,08,8.70
2015,06,14,05,09,8.70
2015,06,14,05,10,8.70
2015,06,14,05,11,8.70
2015,06,14,05,12,8.70
2015,06,14,05,13,8.70
2015,06,14,05,14,8.60
2015,06,14,05,15,8.60
2015,06,14,05,16,8.60
2015,06,14,05,17,8.60
2015,06,14,05,18,8.60
2015,06,14,05,19,8.60
2015,06,14,05,20,8.50
2015,06,14,05,21,8.50
2015,06,14,05,22,8.50
2015,06,14,05,23,8.50
2015,06,14,05,24,8.40
2015,06,14,05,25,8.40
2015,06,14,05,26,8.40
2015,06,14,05,27,8.40
2015,06,14,05,28,8.40
2015,06,14,05,29,8.40
2015,06,14,05,30,8.40
2015,06,14,05,31,8.40
2015,06,14,05,32,8.40
2015,06,14,05,33,8.40
2015,06,14,05,34,8.40
2015,06,14,05,35,8.40
2015,06,14,05,36,8.40
2015,06,14,05,37,8.40
2015,06,14,05,38,8.40
2015,06,14,05,39,8.40
2015,06,14,05,40,8.40
2015,06,14,05,41,8.40
2015,06,14,05,42,8.40
2015,06,14,05,43,8.30
2015,06,14,05,44,8.30
2015,06,14,05,45,8.30
2015,06,14,05,46,8.30
2015,06,14,05,47,8.30
2015,06,14,05,48,8.30
2015,06,14,05,49,8.30
2015,06,14,05,50,8.30
2015,06,14,05,51,8.30
2015,06,14,05,52,8.30
2015,06,14,05,53,8.30
2015,06,14,05,54,8.30
2015,06,14,05,55,8.40
2015,06,14,05,56,8.40
2015,06,14,05,57,8.40
2015,06,14,05,58,8.40
2015,06,14,05,59,8.40
2015,06,14,06,00,8.40
2015,06,14,06,01,8.40
2015,06,14,06,02,8.40
2015,06,14,06,03,8.40
2015,06,14,06,04,8.40
2015,06,14,06,05,8.40
2015,06,14,06,06,8.40
2015,06,14,06,07,8.40
2015,06,14,06,08,8.40
2015,06,14,06,09,8.40
2015,06,14,06,10,8.40
2015,06,14,06,11,8.50
2015,06,14,06,12,8.50
2015,06,14,06,13,8.50
2015,06,14,06,14,8.50
2015,06,14,06,15,8.60
2015,06,14,06,16,8.60
2015,06,14,06,17,8.60
2015,06,14,06,18,8.70
2015,06,14,06,19,8.70
2015,06,14,06,20,8.80
2015,06,14,06,21,8.80
2015,06,14,06,22,8.90
2015,06,14,06,23,8.90
2015,06,14,06,24,9.00
2015,06,14,06,25,9.10
2015,06,14,06,26,9.10
2015,06,14,06,27,9.20
2015,06,14,06,28,9.20
2015,06,14,06,29,9.30
2015,06,14,06,30,9.30
2015,06,14,06,31,9.40
2015,06,14,06,32,9.40
2015,06,14,06,33,9.50
2015,06,14,06,34,9.50
2015,06,14,06,35,9.60
2015,06,14,06,36,9.60
2015,06,14,06,37,9.70
2015,06,14,06,38,9.70
2015,06,14,06,39,9.80
2015,06,14,06,40,9.80
2015,06,14,06,41,9.90
2015,06,14,06,42,9.90
2015,06,14,06,43,10.00
2015,06,14,06,44,10.00
2015,06,14,06,45,10.10
2015,06,14,06,46,10.10
2015,06,14,06,47,10.20
2015,06,14,06,48,10.30
2015,06,14,06,49,10.30
2015,06,14,06,50,10.40
2015,06,14,06,51,10.50
2015,06,14,06,52,10.50
2015,06,14,06,53,10.50
2015,06,14,06,54,10.60
2015,06,14,06,55,10.60
2015,06,14,06,56,10.60
2015,06,14,06,57,10.70
2015,06,14,06,58,10.70
2015,06,14,06,59,10.80
2015,06,14,07,00,10.80
2015,06,14,07,01,10.90
2015,06,14,07,02,10.90
2015,06,14,07,03,11.00
2015,06,14,07,04,11.00
2015,06,14,07,05,11.10
2015,06,14,07,06,11.10
2015,06,14,07,07,11.10
2015,06,14,07,08,11.20
2015,06,14,07,09,11.20
2015,06,14,07,10,11.30
2015,06,14,07,11,11.30
2015,06,14,07,12,11.30
2015,06,14,07,13,11.30
2015,06,14,07,14,11.30
2015,06,14,07,15,11.30
2015,06,14,07,16,11.30
2015,06,14,07,17,11.30
2015,06,14,07,18,11.30
2015,06,14,07,19,11.40
2015,06,14,07,20,11.40
2015,06,14,07,21,11.40
2015,06,14,07,22,11.50
2015,06,14,07,23,11.60
2015,06,14,07,24,11.60
2015,06,14,07,25,11.70
2015,06,14,07,26,11.70
2015,06,14,07,27,11.70
2015,06,14,07,28,11.80
2015,06,14,07,29,11.80
2015,06,14,07,30,11.90
2015,06,14,07,31,11.90
2015,06,14,07,32,12.00
2015,06,14,07,33,12.00
2015,06,14,07,34,12.10
2015,06,14,07,35,12.10
2015,06,14,07,36,12.30
2015,06,14,07,37,12.40
2015,06,14,07,38,12.50
2015,06,14,07,39,12.60
2015,06,14,07,40,12.60
2015,06,14,07,41,12.70
2015,06,14,07,42,12.80
2015,06,14,07,43,12.80
2015,06,14,07,44,12.90
2015,06,14,07,45,12.90
2015,06,14,07,46,12.90
2015,06,14,07,47,13.00
2015,06,14,07,48,13.00
2015,06,14,07,49,13.00
2015,06,14,07,50,13.10
2015,06,14,07,51,13.20
2015,06,14,07,52,13.20
2015,06,14,07,53,13.30
2015,06,14,07,54,13.30
2015,06,14,07,55,13.40
2015,06,14,07,56,13.40
2015,06,14,07,57,13.50
2015,06,14,07,58,13.60
2015,06,14,07,59,13.70
2015,06,14,08,00,13.70
2015,06,14,08,01,13.80
2015,06,14,08,02,13.80
2015,06,14,08,03,13.90
2015,06,14,08,04,14.00
2015,06,14,08,05,14.10
2015,06,14,08,06,14.10
2015,06,14,08,07,14.20
2015,06,14,08,08,14.20
2015,06,14,08,09,14.20
2015,06,14,08,10,14.30
2015,06,14,08,11,14.40
2015,06,14,08,12,14.50
2015,06,14,08,13,14.70
2015,06,14,08,14,14.80
2015,06,14,08,15,15.00
2015,06,14,08,16,15.10
2015,06,14,08,17,15.20
2015,06,14,08,18,15.30
2015,06,14,08,19,15.30
2015,06,14,08,20,15.40
2015,06,14,08,21,15.50
2015,06,14,08,22,15.60
2015,06,14,08,23,15.70
2015,06,14,08,24,15.70
2015,06,14,08,25,15.80
2015,06,14,08,26,15.80
2015,06,14,08,27,15.80
2015,06,14,08,28,15.80
2015,06,14,08,29,15.80
2015,06,14,08,30,15.80
2015,06,14,08,31,15.80
2015,06,14,08,32,15.80
2015,06,14,08,33,15.80
2015,06,14,08,34,15.80
2015,06,14,08,35,15.80
2015,06,14,08,36,15.90
2015,06,14,08,37,15.90
2015,06,14,08,38,15.90
2015,06,14,08,39,16.00
2015,06,14,08,40,16.00
2015,06,14,08,41,16.00
2015,06,14,08,42,16.00
2015,06,14,08,43,16.00
2015,06,14,08,44,15.90
2015,06,14,08,45,15.90
2015,06,14,08,46,15.90
2015,06,14,08,47,15.90
2015,06,14,08,48,16.00
2015,06,14,08,49,16.00
2015,06,14,08,50,16.10
2015,06,14,08,51,16.20
2015,06,14,08,52,16.20
2015,06,14,08,53,16.30
2015,06,14,08,54,16.40
2015,06,14,08,55,16.50
2015,06,14,08,56,16.60
2015,06,14,08,57,16.70
2015,06,14,08,58,16.70
2015,06,14,08,59,16.80
2015,06,14,09,00,16.80
2015,06,14,09,01,16.80
2015,06,14,09,02,16.90
2015,06,14,09,03,16.90
2015,06,14,09,04,16.90
2015,06,14,09,05,16.90
2015,06,14,09,06,17.00
2015,06,14,09,07,17.10
2015,06,14,09,08,17.10
2015,06,14,09,09,17.20
2015,06,14,09,10,17.20
2015,06,14,09,11,17.10
2015,06,14,09,12,17.10
2015,06,14,09,13,17.20
2015,06,14,09,14,17.20
2015,06,14,09,15,17.30
2015,06,14,09,16,17.30
2015,06,14,09,17,17.30
2015,06,14,09,18,17.30
2015,06,14,09,19,17.30
2015,06,14,09,20,17.30
2015,06,14,09,21,17.30
2015,06,14,09,22,17.30
2015,06,14,09,23,17.30
2015,06,14,09,24,17.40
2015,06,14,09,25,17.40
2015,06,14,09,26,17.40
2015,06,14,09,27,17.30
2015,06,14,09,28,17.40
2015,06,14,09,29,17.50
2015,06,14,09,30,17.60
2015,06,14,09,31,17.70
2015,06,14,09,32,17.80
2015,06,14,09,33,17.90
2015,06,14,09,34,18.00
2015,06,14,09,35,18.00
2015,06,14,09,36,17.90
2015,06,14,09,37,17.90
2015,06,14,09,38,17.80
2015,06,14,09,39,17.80
2015,06,14,09,40,17.70
2015,06,14,09,41,17.70
2015,06,14,09,42,17.70
2015,06,14,09,43,17.80
2015,06,14,09,44,17.90
2015,06,14,09,45,18.00
2015,06,14,09,46,18.10
2015,06,14,09,47,18.20
2015,06,14,09,48,18.20
2015,06,14,09,49,18.30
2015,06,14,09,50,18.30
2015,06,14,09,51,18.30
2015,06,14,09,52,18.30
2015,06,14,09,53,18.30
2015,06,14,09,54,18.40
2015,06,14,09,55,18.50
2015,06,14,09,56,18.60
2015,06,14,09,57,18.70
2015,06,14,09,58,18.70
2015,06,14,09,59,18.70
2015,06,14,10,00,18.70
2015,06,14,10,01,18.70
2015,06,14,10,02,18.70
2015,06,14,10,03,18.80
2015,06,14,10,04,18.90
2015,06,14,10,05,19.00
2015,06,14,10,06,19.10
2015,06,14,10,07,19.20
2015,06,14,10,08,19.30
2015,06,14,10,09,19.40
2015,06,14,10,10,19.40
2015,06,14,10,11,19.50
2015,06,14,10,12,19.60
2015,06,14,10,13,19.70
2015,06,14,10,14,19.70
2015,06,14,10,15,19.80
2015,06,14,10,16,19.80
2015,06,14,10,17,19.80
2015,06,14,10,18,19.80
2015,06,14,10,19,19.70
2015,06,14,10,20,19.80
2015,06,14,10,21,19.80
2015,06,14,10,22,19.80
2015,06,14,10,23,19.90
2015,06,14,10,24,20.00
2015,06,14,10,25,20.00
2015,06,14,10,26,20.10
2015,06,14,10,27,20.10
2015,06,14,10,28,20.10
2015,06,14,10,29,20.10
2015,06,14,10,30,20.10
2015,06,14,10,31,20.10
2015,06,14,10,32,20.10
2015,06,14,10,33,20.10
2015,06,14,10,34,20.20
2015,06,14,10,35,20.20
2015,06,14,10,36,20.30
2015,06,14,10,37,20.30
2015,06,14,10,38,20.30
2015,06,14,10,39,20.30
2015,06,14,10,40,20.40
2015,06,14,10,41,20.50
2015,06,14,10,42,20.50
2015,06,14,10,43,20.70
2015,06,14,10,44,20.80
2015,06,14,10,45,20.80
2015,06,14,10,46,20.80
2015,06,14,10,47,20.70
2015,06,14,10,48,20.70
2015,06,14,10,49,20.70
2015,06,14,10,50,20.80
2015,06,14,10,51,20.80
2015,06,14,10,52,20.90
2015,06,14,10,53,20.90
2015,06,14,10,54,20.90
2015,06,14,10,55,21.00
2015,06,14,10,56,21.00
2015,06,14,10,57,21.10
2015,06,14,10,58,21.10
2015,06,14,10,59,21.10
2015,06,14,11,00,21.20
2015,06,14,11,01,21.20
2015,06,14,11,02,21.30
2015,06,14,11,03,21.40
2015,06,14,11,04,21.50
2015,06,14,11,05,21.60
2015,06,14,11,06,21.60
2015,06,14,11,07,21.60
2015,06,14,11,08,21.60
2015,06,14,11,09,21.60
2015,06,14,11,10,21.60
2015,06,14,11,11,21.60
2015,06,14,11,12,21.60
2015,06,14,11,13,21.60
2015,06,14,11,14,21.60
2015,06,14,11,15,21.60
2015,06,14,11,16,21.60
2015,06,14,11,17,21.60
2015,06,14,11,18,21.70
2015,06,14,11,19,21.90
2015,06,14,11,20,21.90
2015,06,14,11,21,21.90
2015,06,14,11,22,21.90
2015,06,14,11,23,21.80
2015,06,14,11,24,21.80
2015,06,14,11,25,21.80
2015,06,14,11,26,21.70
2015,06,14,11,27,21.70
2015,06,14,11,28,21.80
2015,06,14,11,29,21.80
2015,06,14,11,30,21.80
2015,06,14,11,31,21.90
2015,06,14,11,32,21.90
2015,06,14,11,33,22.00
2015,06,14,11,34,22.10
2015,06,14,11,35,22.20
2015,06,14,11,36,22.30
2015,06,14,11,37,22.40
2015,06,14,11,38,22.50
2015,06,14,11,39,22.50
2015,06,14,11,40,22.60
2015,06,14,11,41,22.70
2015,06,14,11,42,22.70
2015,06,14,11,43,22.60
2015,06,14,11,44,22.70
2015,06,14,11,45,22.70
2015,06,14,11,46,22.70
2015,06,14,11,47,22.80
2015,06,14,11,48,22.90
2015,06,14,11,49,22.90
2015,06,14,11,50,23.00
2015,06,14,11,51,23.00
2015,06,14,11,52,23.10
2015,06,14,11,53,23.10
2015,06,14,11,54,23.10
2015,06,14,11,55,23.10
2015,06,14,11,56,23.10
2015,06,14,11,57,23.10
2015,06,14,11,58,23.10
2015,06,14,11,59,23.10
2015,06,14,12,00,23.20
2015,06,14,12,01,23.20
2015,06,14,12,02,23.20
2015,06,14,12,03,23.20
2015,06,14,12,04,23.30
2015,06,14,12,05,23.30
2015,06,14,12,06,23.40
2015,06,14,12,07,23.50
2015,06,14,12,08,23.60
2015,06,14,12,09,23.70
2015,06,14,12,10,23.70
2015,06,14,12,11,23.80
2015,06,14,12,12,23.70
2015,06,14,12,13,23.70
2015,06,14,12,14,23.70
2015,06,14,12,15,23.70
2015,06,14,12,16,23.70
2015,06,14,12,17,23.80
2015,06,14,12,18,23.80
2015,06,14,12,19,23.80
2015,06,14,12,20,23.90
2015,06,14,12,21,24.00
2015,06,14,12,22,24.10
2015,06,14,12,23,24.20
2015,06,14,12,24,24.30
2015,06,14,12,25,24.30
2015,06,14,12,26,24.30
2015,06,14,12,27,24.30
2015,06,14,12,28,24.30
2015,06,14,12,29,24.40
2015,06,14,12,30,24.40
2015,06,14,12,31,24.50
2015,06,14,12,32,24.60
2015,06,14,12,33,24.50
2015,06,14,12,34,24.50
2015,06,14,12,35,24.50
2015,06,14,12,36,24.50
2015,06,14,12,37,24.50
2015,06,14,12,38,24.50
2015,06,14,12,39,24.40
2015,06,14,12,40,24.30
2015,06,14,12,41,24.30
2015,06,14,12,42,24.20
2015,06,14,12,43,24.20
2015,06,14,12,44,24.20
2015,06,14,12,45,24.20
2015,06,14,12,46,24.20
2015,06,14,12,47,24.30
2015,06,14,12,48,24.30
2015,06,14,12,49,24.30
2015,06,14,12,50,24.30
2015,06,14,12,51,24.30
2015,06,14,12,52,24.40
2015,06,14,12,53,24.50
2015,06,14,12,54,24.50
2015,06,14,12,55,24.40
2015,06,14,12,56,24.30
2015,06,14,12,57,24.30
2015,06,14,12,58,24.30
2015,06,14,12,59,24.30
2015,06,14,13,00,24.40
2015,06,14,13,01,24.50
2015,06,14,13,02,24.50
2015,06,14,13,03,24.40
2015,06,14,13,04,24.40
2015,06,14,13,05,24.30
2015,06,14,13,06,24.30
2015,06,14,13,07,24.30
2015,06,14,13,08,24.30
2015,06,14,13,09,24.40
2015,06,14,13,10,24.40
2015,06,14,13,11,24.50
2015,06,14,13,12,24.50
2015,06,14,13,13,24.50
2015,06,14,13,14,24.50
2015,06,14,13,15,24.50
2015,06,14,13,16,24.50
2015,06,14,13,17,24.60
2015,06,14,13,18,24.60
2015,06,14,13,19,24.70
2015,06,14,13,20,24.70
2015,06,14,13,21,24.70
2015,06,14,13,22,24.70
2015,06,14,13,23,24.70
2015,06,14,13,24,24.60
2015,06,14,13,25,24.60
2015,06,14,13,26,24.60
2015,06,14,13,27,24.60
2015,06,14,13,28,24.70
2015,06,14,13,29,24.80
2015,06,14,13,30,24.80
2015,06,14,13,31,24.80
2015,06,14,13,32,24.90
2015,06,14,13,33,24.90
2015,06,14,13,34,24.90
2015,06,14,13,35,25.00
2015,06,14,13,36,25.10
2015,06,14,13,37,25.10
2015,06,14,13,38,25.20
2015,06,14,13,39,25.20
2015,06,14,13,40,25.20
2015,06,14,13,41,25.20
2015,06,14,13,42,25.20
2015,06,14,13,43,25.20
2015,06,14,13,44,25.10
2015,06,14,13,45,25.10
2015,06,14,13,46,25.20
2015,06,14,13,47,25.20
2015,06,14,13,48,25.20
2015,06,14,13,49,25.10
2015,06,14,13,50,25.10
2015,06,14,13,51,25.10
2015,06,14,13,52,25.00
2015,06,14,13,53,25.00
2015,06,14,13,54,25.00
2015,06,14,13,55,25.00
2015,06,14,13,56,24.90
2015,06,14,13,57,24.90
2015,06,14,13,58,24.90
2015,06,14,13,59,24.90
2015,06,14,14,00,24.90
2015,06,14,14,01,24.90
2015,06,14,14,02,24.80
2015,06,14,14,03,24.80
2015,06,14,14,04,24.80
2015,06,14,14,05,24.90
2015,06,14,14,06,25.00
2015,06,14,14,07,25.00
2015,06,14,14,08,25.10
2015,06,14,14,09,25.20
2015,06,14,14,10,25.30
2015,06,14,14,11,25.30
2015,06,14,14,12,25.30
2015,06,14,14,13,25.30
2015,06,14,14,14,25.30
2015,06,14,14,15,25.30
2015,06,14,14,16,25.30
2015,06,14,14,17,25.40
2015,06,14,14,18,25.40
2015,06,14,14,19,25.40
2015,06,14,14,20,25.30
2015,06,14,14,21,25.30
2015,06,14,14,22,25.30
2015,06,14,14,23,25.30
2015,06,14,14,24,25.40
2015,06,14,14,25,25.40
2015,06,14,14,26,25.40
2015,06,14,14,27,25.50
2015,06,14,14,28,25.40
2015,06,14,14,29,25.30
2015,06,14,14,30,25.30
2015,06,14,14,31,25.30
2015,06,14,14,32,25.30
2015,06,14,14,33,25.30
2015,06,14,14,34,25.30
2015,06,14,14,35,25.30
2015,06,14,14,36,25.20
2015,06,14,14,37,25.20
2015,06,14,14,38,25.20
2015,06,14,14,39,25.20
2015,06,14,14,40,25.30
2015,06,14,14,41,25.30
2015,06,14,14,42,25.30
2015,06,14,14,43,25.30
2015,06,14,14,44,25.40
2015,06,14,14,45,25.50
2015,06,14,14,46,25.60
2015,06,14,14,47,25.80
2015,06,14,14,48,25.90
2015,06,14,14,49,25.90
2015,06,14,14,50,25.90
2015,06,14,14,51,25.70
2015,06,14,14,52,25.60
2015,06,14,14,53,25.50
2015,06,14,14,54,25.50
2015,06,14,14,55,25.50
2015,06,14,14,56,25.50
2015,06,14,14,57,25.60
2015,06,14,14,58,25.60
2015,06,14,14,59,25.60
2015,06,14,15,00,25.60
2015,06,14,15,01,25.60
2015,06,14,15,02,25.70
2015,06,14,15,03,25.70
2015,06,14,15,04,25.70
2015,06,14,15,05,25.70
2015,06,14,15,06,25.80
2015,06,14,15,07,25.80
2015,06,14,15,08,25.80
2015,06,14,15,09,25.70
2015,06,14,15,10,25.60
2015,06,14,15,11,25.60
2015,06,14,15,12,25.70
2015,06,14,15,13,25.80
2015,06,14,15,14,25.80
2015,06,14,15,15,25.80
2015,06,14,15,16,25.90
2015,06,14,15,17,26.00
2015,06,14,15,18,26.00
2015,06,14,15,19,26.00
2015,06,14,15,20,25.90
2015,06,14,15,21,25.90
2015,06,14,15,22,25.90
2015,06,14,15,23,25.90
2015,06,14,15,24,25.90
2015,06,14,15,25,25.90
2015,06,14,15,26,25.90
2015,06,14,15,27,25.90
2015,06,14,15,28,25.80
2015,06,14,15,29,25.80
2015,06,14,15,30,25.70
2015,06,14,15,31,25.70
2015,06,14,15,32,25.70
2015,06,14,15,33,25.70
2015,06,14,15,34,25.70
2015,06,14,15,35,25.60
2015,06,14,15,36,25.60
2015,06,14,15,37,25.70
2015,06,14,15,38,25.70
2015,06,14,15,39,25.70
2015,06,14,15,40,25.70
2015,06,14,15,41,25.80
2015,06,14,15,42,25.80
2015,06,14,15,43,25.80
2015,06,14,15,44,25.70
2015,06,14,15,45,25.80
2015,06,14,15,46,25.80
2015,06,14,15,47,25.80
2015,06,14,15,48,25.70
2015,06,14,15,49,25.80
2015,06,14,15,50,25.80
2015,06,14,15,51,25.90
2015,06,14,15,52,25.90
2015,06,14,15,53,25.80
2015,06,14,15,54,25.80
2015,06,14,15,55,25.80
2015,06,14,15,56,25.80
2015,06,14,15,57,25.90
2015,06,14,15,58,25.90
2015,06,14,15,59,26.00
2015,06,14,16,00,26.10
2015,06,14,16,01,26.10
2015,06,14,16,02,26.10
2015,06,14,16,03,26.10
2015,06,14,16,04,26.10
2015,06,14,16,05,26.10
2015,06,14,16,06,26.10
2015,06,14,16,07,26.10
2015,06,14,16,08,26.10
2015,06,14,16,09,26.10
2015,06,14,16,10,26.10
2015,06,14,16,11,26.10
2015,06,14,16,12,26.10
2015,06,14,16,13,26.20
2015,06,14,16,14,26.20
2015,06,14,16,15,26.20
2015,06,14,16,16,26.10
2015,06,14,16,17,26.10
2015,06,14,16,18,26.00
2015,06,14,16,19,26.00
2015,06,14,16,20,25.90
2015,06,14,16,21,26.00
2015,06,14,16,22,26.00
2015,06,14,16,23,26.10
2015,06,14,16,24,26.10
2015,06,14,16,25,26.10
2015,06,14,16,26,26.10
2015,06,14,16,27,26.20
2015,06,14,16,28,26.20
2015,06,14,16,29,26.30
2015,06,14,16,30,26.30
2015,06,14,16,31,26.30
2015,06,14,16,32,26.30
2015,06,14,16,33,26.40
2015,06,14,16,34,26.40
2015,06,14,16,35,26.30
2015,06,14,16,36,26.30
2015,06,14,16,37,26.30
2015,06,14,16,38,26.20
2015,06,14,16,39,26.10
2015,06,14,16,40,26.10
2015,06,14,16,41,26.10
2015,06,14,16,42,26.10
2015,06,14,16,43,26.10
2015,06,14,16,44,26.10
2015,06,14,16,45,26.10
2015,06,14,16,46,26.10
2015,06,14,16,47,26.10
2015,06,14,16,48,26.10
2015,06,14,16,49,26.20
2015,06,14,16,50,26.20
2015,06,14,16,51,26.20
2015,06,14,16,52,26.20
2015,06,14,16,53,26.20
2015,06,14,16,54,26.20
2015,06,14,16,55,26.10
2015,06,14,16,56,26.10
2015,06,14,16,57,26.10
2015,06,14,16,58,26.10
2015,06,14,16,59,26.20
2015,06,14,17,00,26.20
2015,06,14,17,01,26.20
2015,06,14,17,02,26.20
2015,06,14,17,03,26.20
2015,06,14,17,04,26.30
2015,06,14,17,05,26.30
2015,06,14,17,06,26.30
2015,06,14,17,07,26.30
2015,06,14,17,08,26.30
2015,06,14,17,09,26.30
2015,06,14,17,10,26.30
2015,06,14,17,11,26.30
2015,06,14,17,12,26.30
2015,06,14,17,13,26.40
2015,06,14,17,14,26.50
2015,06,14,17,15,26.60
2015,06,14,17,16,26.60
2015,06,14,17,17,26.60
2015,06,14,17,18,26.50
2015,06,14,17,19,26.50
2015,06,14,17,20,26.40
2015,06,14,17,21,26.40
2015,06,14,17,22,26.40
2015,06,14,17,23,26.50
2015,06,14,17,24,26.50
2015,06,14,17,25,26.60
2015,06,14,17,26,26.50
2015,06,14,17,27,26.50
2015,06,14,17,28,26.50